BEIDOU-2 IGSO-3 (C08)

Last updated on Fri Jun 19 2026 17:10:00 GMT+0000 (Coordinated Universal Time)

1 37384U 11013A 26169.61194170 -.00000190 00000+0 00000+0 0 9993 2 37384 62.4088 40.1377 0034295 184.6608 10.0015 1.00267082 55679
UTC large
Height (km)
Speed (km/s)
/
Latitude / Longitude
Inclination (degrees)
Orbital Period (minutes)
Azimuth
Elevation
Range (km)
Doppler Factor

Next 0 passes for location: London (51.5072 / 0.1276)

No passes found over London.
BEIDOU-2 IGSO-3 (C08)